When you browse on this site, cookies collect data to enhance your experience and personalize the content and advertising you see.
Visit our Privacy Policy to learn more. By continuing to use the site, you agree to this use of cookies and data.
  • In Deutschland
  • Länderverzeichnis
  • Für 7 Tage
  • Wassertemperatur
  • Satellitenkarten
  • Wetterkarte
  • Widgets
  • user-avatar
    Anmelden

    Stündliche Wetter Annaba

    Heute, 20 Mai, Montag

    Zeit Temperatur Niederschläge Wind Luftdruck Luftfeuchtigkeit
    00:00 +14°C° 0 mm 3 m/S 757 mmHg 71%
    01:00 +13°C° 0 mm 4 m/S 757 mmHg 71%
    02:00 +13°C° 0 mm 4 m/S 757 mmHg 70%
    03:00 +13°C° 0 mm 3 m/S 757 mmHg 69%
    04:00 +13°C° 0 mm 3 m/S 757 mmHg 68%
    05:00 +14°C° 0 mm 3 m/S 757 mmHg 65%
    06:00 +16°C° 0 mm 3 m/S 758 mmHg 62%
    07:00 +17°C° 0 mm 3 m/S 758 mmHg 60%
    08:00 +18°C° 0 mm 3 m/S 758 mmHg 56%
    09:00 +20°C° 0 mm 3 m/S 759 mmHg 53%
    10:00 +21°C° 0 mm 3 m/S 759 mmHg 49%
    11:00 +22°C° 0 mm 3 m/S 759 mmHg 46%
    12:00 +24°C° 0 mm 3 m/S 759 mmHg 43%
    13:00 +25°C° 0 mm 3 m/S 759 mmHg 40%
    14:00 +25°C° 0 mm 3 m/S 759 mmHg 40%
    15:00 +25°C° 0 mm 3 m/S 759 mmHg 40%
    16:00 +25°C° 0 mm 3 m/S 759 mmHg 40%
    17:00 +22°C° 0 mm 3 m/S 759 mmHg 46%
    18:00 +21°C° 0 mm 2 m/S 759 mmHg 52%
    19:00 +20°C° 0 mm 2 m/S 759 mmHg 58%
    20:00 +18°C° 0 mm 2 m/S 759 mmHg 61%
    21:00 +18°C° 0 mm 1 m/S 760 mmHg 65%
    22:00 +16°C° 0 mm 1 m/S 760 mmHg 68%
    23:00 +16°C° 0 mm 2 m/S 760 mmHg 67%

    Morgen, 21 Mai, Dienstag

    Zeit Temperatur Niederschläge Wind Luftdruck Luftfeuchtigkeit
    00:00 +15°C° 0 mm 2 m/S 760 mmHg 67%
    01:00 +15°C° 0 mm 2 m/S 760 mmHg 66%
    02:00 +15°C° 0 mm 2 m/S 760 mmHg 65%
    03:00 +15°C° 0 mm 2 m/S 760 mmHg 64%
    04:00 +15°C° 0 mm 2 m/S 759 mmHg 63%
    05:00 +16°C° 0 mm 1 m/S 759 mmHg 61%
    06:00 +18°C° 0 mm 1 m/S 759 mmHg 58%
    07:00 +19°C° 0 mm 1 m/S 759 mmHg 56%
    08:00 +21°C° 0 mm 1 m/S 759 mmHg 50%
    09:00 +24°C° 0 mm 2 m/S 759 mmHg 45%
    10:00 +26°C° 0 mm 2 m/S 759 mmHg 39%
    11:00 +27°C° 0 mm 2 m/S 760 mmHg 38%
    12:00 +28°C° 0 mm 3 m/S 760 mmHg 36%
    13:00 +28°C° 0 mm 4 m/S 760 mmHg 35%
    14:00 +27°C° 0.1 mm 3 m/S 760 mmHg 42%
    15:00 +25°C° 0.1 mm 2 m/S 760 mmHg 49%
    16:00 +24°C° 0.1 mm 2 m/S 760 mmHg 55%
    17:00 +21°C° 0.3 mm 2 m/S 760 mmHg 64%
    18:00 +20°C° 0.3 mm 2 m/S 760 mmHg 72%
    19:00 +19°C° 0.3 mm 2 m/S 760 mmHg 80%
    20:00 +18°C° 0.6 mm 2 m/S 761 mmHg 83%
    21:00 +18°C° 0.6 mm 2 m/S 761 mmHg 85%
    22:00 +18°C° 0.6 mm 2 m/S 762 mmHg 87%
    23:00 +19°C° 0.4 mm 1 m/S 761 mmHg 86%

    übermorgen, 22 Mai, Mittwoch

    Zeit Temperatur Niederschläge Wind Luftdruck Luftfeuchtigkeit
    00:00 +18°C° 0.4 mm 1 m/S 761 mmHg 85%
    01:00 +16°C° 0.4 mm 0 m/S 761 mmHg 84%
    02:00 +16°C° 0.5 mm 0 m/S 761 mmHg 86%
    03:00 +16°C° 0.5 mm 1 m/S 760 mmHg 88%
    04:00 +16°C° 0.5 mm 1 m/S 760 mmHg 89%
    05:00 +16°C° 0.2 mm 1 m/S 760 mmHg 87%
    06:00 +18°C° 0.2 mm 1 m/S 761 mmHg 84%
    07:00 +19°C° 0.2 mm 1 m/S 761 mmHg 82%
    08:00 +20°C° 0.1 mm 1 m/S 761 mmHg 75%
    09:00 +21°C° 0.1 mm 2 m/S 761 mmHg 68%
    10:00 +24°C° 0.1 mm 2 m/S 761 mmHg 61%
    11:00 +25°C° 0 mm 3 m/S 761 mmHg 58%
    12:00 +25°C° 0 mm 3 m/S 761 mmHg 55%
    13:00 +26°C° 0 mm 4 m/S 761 mmHg 52%
    14:00 +26°C° 0.2 mm 4 m/S 761 mmHg 52%
    15:00 +26°C° 0.2 mm 4 m/S 761 mmHg 53%
    16:00 +26°C° 0.2 mm 4 m/S 761 mmHg 53%
    17:00 +23°C° 0.2 mm 4 m/S 761 mmHg 59%
    18:00 +22°C° 0.2 mm 3 m/S 761 mmHg 65%
    19:00 +20°C° 0.2 mm 3 m/S 761 mmHg 70%
    20:00 +19°C° 0 mm 2 m/S 762 mmHg 75%
    21:00 +19°C° 0 mm 1 m/S 763 mmHg 79%
    22:00 +16°C° 0 mm 0 m/S 763 mmHg 84%
    23:00 +15°C° 0 mm 0 m/S 763 mmHg 84%

    23 Mai, Donnerstag

    Zeit Temperatur Niederschläge Wind Luftdruck Luftfeuchtigkeit
    00:00 +16°C° 0 mm 1 m/S 763 mmHg 85%
    01:00 +16°C° 0 mm 1 m/S 763 mmHg 86%
    02:00 +16°C° 0 mm 1 m/S 763 mmHg 86%
    03:00 +15°C° 0 mm 1 m/S 762 mmHg 87%
    04:00 +15°C° 0 mm 1 m/S 762 mmHg 88%
    05:00 +16°C° 0 mm 1 m/S 762 mmHg 84%
    06:00 +18°C° 0 mm 1 m/S 762 mmHg 79%
    07:00 +19°C° 0 mm 1 m/S 763 mmHg 74%
    08:00 +21°C° 0 mm 1 m/S 763 mmHg 66%
    09:00 +23°C° 0 mm 1 m/S 763 mmHg 57%
    10:00 +25°C° 0 mm 1 m/S 763 mmHg 48%
    11:00 +26°C° 0 mm 2 m/S 763 mmHg 44%
    12:00 +26°C° 0 mm 2 m/S 763 mmHg 41%
    13:00 +27°C° 0 mm 3 m/S 763 mmHg 37%
    14:00 +27°C° 0 mm 3 m/S 762 mmHg 38%
    15:00 +26°C° 0 mm 3 m/S 762 mmHg 38%
    16:00 +26°C° 0 mm 3 m/S 762 mmHg 39%
    17:00 +25°C° 0 mm 3 m/S 762 mmHg 45%
    18:00 +23°C° 0 mm 2 m/S 762 mmHg 50%
    19:00 +21°C° 0 mm 2 m/S 762 mmHg 56%
    20:00 +20°C° 0 mm 2 m/S 762 mmHg 59%
    21:00 +19°C° 0 mm 1 m/S 763 mmHg 63%
    22:00 +18°C° 0 mm 1 m/S 763 mmHg 66%
    23:00 +18°C° 0 mm 1 m/S 763 mmHg 66%

    24 Mai, Freitag

    Zeit Temperatur Niederschläge Wind Luftdruck Luftfeuchtigkeit
    00:00 +16°C° 0 mm 1 m/S 763 mmHg 65%
    01:00 +16°C° 0 mm 1 m/S 762 mmHg 65%
    02:00 +16°C° 0 mm 1 m/S 762 mmHg 64%
    03:00 +15°C° 0 mm 1 m/S 762 mmHg 63%
    04:00 +14°C° 0 mm 0 m/S 762 mmHg 63%
    05:00 +15°C° 0 mm 0 m/S 762 mmHg 60%
    06:00 +16°C° 0 mm 0 m/S 762 mmHg 57%
    07:00 +18°C° 0 mm 0 m/S 762 mmHg 53%
    08:00 +22°C° 0 mm 1 m/S 762 mmHg 48%
    09:00 +24°C° 0 mm 1 m/S 762 mmHg 42%
    10:00 +26°C° 0 mm 1 m/S 762 mmHg 36%
    11:00 +27°C° 0 mm 2 m/S 762 mmHg 34%
    12:00 +27°C° 0 mm 2 m/S 762 mmHg 33%
    13:00 +28°C° 0 mm 3 m/S 761 mmHg 31%
    14:00 +28°C° 0 mm 3 m/S 761 mmHg 32%
    15:00 +28°C° 0 mm 3 m/S 761 mmHg 33%
    16:00 +27°C° 0 mm 3 m/S 760 mmHg 34%
    17:00 +26°C° 0 mm 2 m/S 760 mmHg 39%
    18:00 +24°C° 0 mm 2 m/S 760 mmHg 44%
    19:00 +23°C° 0 mm 1 m/S 760 mmHg 49%
    20:00 +21°C° 0 mm 1 m/S 761 mmHg 51%
    21:00 +20°C° 0 mm 1 m/S 761 mmHg 53%
    22:00 +19°C° 0 mm 1 m/S 761 mmHg 55%
    23:00 +19°C° 0 mm 1 m/S 761 mmHg 54%

    25 Mai, Samstag

    Zeit Temperatur Niederschläge Wind Luftdruck Luftfeuchtigkeit
    00:00 +19°C° 0 mm 1 m/S 761 mmHg 53%
    01:00 +19°C° 0 mm 1 m/S 760 mmHg 53%
    02:00 +19°C° 0 mm 1 m/S 760 mmHg 53%
    03:00 +19°C° 0 mm 1 m/S 760 mmHg 54%
    04:00 +18°C° 0 mm 1 m/S 759 mmHg 54%
    05:00 +19°C° 0 mm 1 m/S 759 mmHg 53%
    06:00 +20°C° 0 mm 1 m/S 759 mmHg 51%
    07:00 +21°C° 0 mm 1 m/S 759 mmHg 50%
    08:00 +23°C° 0 mm 2 m/S 759 mmHg 44%
    09:00 +24°C° 0 mm 2 m/S 759 mmHg 38%
    10:00 +26°C° 0 mm 3 m/S 759 mmHg 32%
    11:00 +27°C° 0 mm 4 m/S 758 mmHg 33%
    12:00 +27°C° 0 mm 5 m/S 758 mmHg 33%
    13:00 +27°C° 0 mm 6 m/S 758 mmHg 34%
    14:00 +26°C° 0 mm 6 m/S 758 mmHg 38%
    15:00 +26°C° 0 mm 7 m/S 758 mmHg 42%
    16:00 +26°C° 0 mm 8 m/S 758 mmHg 46%
    17:00 +23°C° 0 mm 7 m/S 758 mmHg 50%
    18:00 +22°C° 0 mm 6 m/S 758 mmHg 54%
    19:00 +21°C° 0 mm 6 m/S 758 mmHg 58%
    20:00 +20°C° 0 mm 5 m/S 759 mmHg 61%
    21:00 +20°C° 0 mm 5 m/S 759 mmHg 64%
    22:00 +20°C° 0 mm 5 m/S 759 mmHg 66%
    23:00 +19°C° 0 mm 5 m/S 759 mmHg 68%
    Mehr zeigen